Location: Unspecified
(41.5000°N, 0.0000°E)
Time: 02:47:43
(UTC+00:00)

Vanguard 2 - Pass Details

Date: 22 June 2019
Orbit: 553 x 2938 km, 32.9° (Epoch: 23 July)

Event Time Altitude Azimuth Distance (km) Brightness Sun altitude
Rises 07:51:50 0° 225° (SW) 3,007 10.2 35.5°
Reaches altitude 10° 07:54:09 10° 212° (SSW) 2,271 9.8 35.9°
Maximum altitude 07:58:37 28° 154° (SSE) 1,730 9.9 36.8°
Drops below altitude 10° 08:05:01 10° 100° (E) 3,352 12.1 38.0°
Sets 08:09:15 0° 90° (E) 4,776 12.5 38.7°
